FW3611 Weather Reports


Display with metric or nautical units.
time (UTC)temp
F
wind
direction
speed
MPH
gust
MPH
rain 1hr
in
rain 24hr
in
rain mn
in
humidity
%
barometer
mb
20260507173302 76 183 9.0 18.0 0.00 0.33 0.33 83 1012.6
20260507172253 76 214 8.0 17.0 0.00 0.33 0.33 82 1012.8
20260507171752 76 201 8.0 19.0 0.00 0.33 0.33 82 1013.0
20260507171254 76 231 8.0 19.0 0.00 0.33 0.33 82 1013.2
20260507170748 76 241 7.0 18.0 0.00 0.33 0.33 83 1013.4
20260507170249 75 219 8.0 18.0 0.00 0.33 0.33 83 1013.0
20260507165748 75 198 8.0 18.0 0.00 0.33 0.33 83 1012.9
20260507165248 75 205 7.0 14.0 0.00 0.33 0.33 84 1012.8
20260507164750 75 228 6.0 12.0 0.00 0.33 0.33 83 1012.9
20260507163747 75 189 6.0 13.0 0.00 0.33 0.33 84 1012.7
20260507163242 75 207 7.0 14.0 0.00 0.33 0.33 84 1012.7
20260507162742 74 204 7.0 14.0 0.00 0.33 0.33 83 1012.8
20260507162243 74 215 7.0 13.0 0.00 0.33 0.33 83 1012.8
20260507161239 74 185 6.0 14.0 0.01 0.33 0.33 84 1012.7
20260507160740 74 218 6.0 15.0 0.01 0.33 0.33 85 1012.7
20260507160238 73 185 6.0 15.0 0.01 0.33 0.33 85 1012.7
20260507155742 73 225 7.0 14.0 0.02 0.33 0.33 85 1012.6
20260507155246 73 206 8.0 15.0 0.02 0.33 0.33 87 1012.6
20260507154756 72 222 9.0 17.0 0.03 0.33 0.33 88 1012.6
20260507154239 71 212 9.0 19.0 0.04 0.33 0.33 89 1012.7
20260507153742 71 166 8.0 19.0 0.05 0.33 0.33 90 1013.0
20260507153241 70 202 7.0 14.0 0.06 0.33 0.33 90 1013.1
20260507152738 70 214 7.0 18.0 0.08 0.33 0.33 90 1012.8
20260507152237 70 216 8.0 18.0 0.11 0.33 0.33 91 1013.0
20260507151234 70 200 11.0 20.0 0.13 0.32 0.32 91 1013.2
20260507150734 70 204 11.0 24.0 0.14 0.32 0.32 91 1013.4
20260507150234 70 212 10.0 24.0 0.16 0.32 0.32 91 1013.9
20260507145731 70 205 9.0 22.0 0.15 0.31 0.31 91 1014.1
20260507145230 70 220 9.0 22.0 0.15 0.31 0.31 91 1014.6
20260507144731 70 200 10.0 25.0 0.14 0.30 0.30 91 1014.9
20260507144232 70 202 10.0 25.0 0.13 0.29 0.29 91 1014.9
20260507143232 69 233 6.0 12.0 0.12 0.27 0.27 91 1015.6
20260507142230 69 216 8.0 15.0 0.07 0.22 0.22 90 1016.1
20260507141731 69 245 8.0 17.0 0.06 0.21 0.20 89 1016.2
20260507140731 69 245 6.0 13.0 0.04 0.18 0.18 88 1016.0
20260507140228 69 264 6.0 13.0 0.04 0.16 0.16 88 1015.8
20260507135228 69 251 6.0 15.0 0.05 0.16 0.16 87 1014.7
20260507134726 69 232 7.0 16.0 0.07 0.16 0.16 87 1013.9
20260507134225 69 197 8.0 16.0 0.08 0.16 0.16 89 1013.2
20260507133726 68 225 8.0 18.0 0.08 0.15 0.15 90 1012.2
20260507133227 68 173 7.0 18.0 0.10 0.15 0.15 91 1011.0
20260507132725 68 203 7.0 19.0 0.11 0.15 0.15 91 1010.9
20260507132232 68 194 8.0 19.0 0.12 0.15 0.15 91 1010.8
20260507131719 67 163 8.0 19.0 0.13 0.15 0.15 91 1010.9
20260507130724 67 152 5.0 19.0 0.14 0.14 0.13 91 1011.3
20260507130222 67 158 4.0 16.0 0.12 0.12 0.12 91 1012.1
20260507125719 67 143 3.0 11.0 0.11 0.11 0.11 91 1012.8
20260507125221 68 160 3.0 11.0 0.11 0.11 0.10 90 1013.2
20260507124717 68 159 2.0 6.0 0.09 0.09 0.09 89 1013.5
20260507124216 68 222 1.0 4.0 0.08 0.08 0.08 89 1015.0
20260507123716 69 223 1.0 4.0 0.07 0.07 0.07 88 1015.3
20260507123217 69 264 1.0 4.0 0.05 0.05 0.05 87 1016.0
20260507122714 69 262 1.0 4.0 0.04 0.04 0.03 86 1015.9
20260507122212 69 262 2.0 7.0 0.03 0.03 0.03 85 1015.6
20260507120703 70 223 3.0 9.0 0.00 0.00 0.00 82 1015.5
20260507120205 70 252 3.0 6.0 0.00 0.00 0.00 81 1015.3
20260507115705 71 191 4.0 8.0 0.00 0.00 0.00 81 1014.5
20260507115211 70 198 4.0 8.0 0.00 0.00 0.00 81 1014.0
20260507114705 70 194 3.0 7.0 0.00 0.00 0.00 82 1013.1
20260507114201 70 183 3.0 7.0 0.00 0.00 0.00 83 1012.5
20260507113703 70 181 3.0 6.0 0.00 0.00 0.00 83 1011.8
20260507113201 70 153 3.0 5.0 0.00 0.00 0.00 83 1011.4
20260507112702 70 158 2.0 6.0 0.00 0.00 0.00 83 1012.0
20260507112205 70 95 2.0 6.0 0.00 0.00 0.00 83 1012.1
20260507111704 70 62 2.0 3.0 0.00 0.00 0.00 83 1012.0
20260507111203 70 304 1.0 3.0 0.00 0.00 0.00 83 1013.1
20260507110657 71 305 0.0 2.0 0.00 0.00 0.00 82 1013.6
20260507105700 71 305 1.0 3.0 0.00 0.00 0.00 81 1013.5
20260507105157 71 305 1.0 3.0 0.00 0.00 0.00 81 1014.1
20260507104656 71 305 1.0 3.0 0.00 0.00 0.00 80 1014.4
20260507103649 71 305 0.0 2.0 0.00 0.00 0.00 80 1013.8
20260507103148 71 305 0.0 2.0 0.00 0.00 0.00 79 1014.4
20260507102646 72 305 0.0 2.0 0.00 0.00 0.00 78 1014.2
20260507102145 72 305 0.0 2.0 0.00 0.00 0.00 78 1014.6
20260507100643 72 305 0.0 2.0 0.00 0.00 0.00 76 1015.0
20260507100141 73 305 1.0 3.0 0.00 0.00 0.00 75 1014.9
20260507095639 73 305 1.0 3.0 0.00 0.00 0.00 75 1014.9
20260507095138 73 305 2.0 3.0 0.00 0.00 0.00 74 1015.1
20260507094636 73 305 2.0 4.0 0.00 0.00 0.00 74 1015.1
20260507094133 73 304 2.0 4.0 0.00 0.00 0.00 74 1015.1
20260507093637 73 299 1.0 4.0 0.00 0.00 0.00 73 1015.2
20260507093142 73 300 2.0 3.0 0.00 0.00 0.00 72 1015.3
20260507092635 73 300 1.0 3.0 0.00 0.00 0.00 71 1015.2
20260507092131 73 300 1.0 3.0 0.00 0.00 0.00 70 1015.0
20260507091629 73 300 1.0 3.0 0.00 0.00 0.00 70 1014.9
20260507091129 73 300 1.0 3.0 0.00 0.00 0.00 70 1015.0
20260507090629 73 300 2.0 7.0 0.00 0.00 0.00 70 1015.2
20260507085129 71 289 3.0 10.0 0.00 0.00 0.00 74 1016.2
20260507084632 69 298 3.0 5.0 0.00 0.00 0.00 76 1016.1
20260507084129 69 245 2.0 3.0 0.00 0.00 0.00 76 1015.5
20260507083636 69 206 1.0 3.0 0.00 0.00 0.00 76 1015.0
20260507083132 69 206 0.0 0.0 0.00 0.00 0.00 75 1014.6
20260507082625 70 206 0.0 0.0 0.00 0.00 0.00 75 1014.2
20260507082115 70 206 0.0 0.0 0.00 0.00 0.00 75 1013.9
20260507081610 70 206 0.0 0.0 0.00 0.00 0.00 75 1013.6
20260507081101 70 206 0.0 0.0 0.00 0.00 0.00 75 1013.3
20260507080056 70 206 0.0 1.0 0.00 0.00 0.00 73 1013.2
20260507075532 71 206 0.0 1.0 0.00 0.00 0.00 74 1013.0
20260507075027 71 206 0.0 2.0 0.00 0.00 0.00 73 1012.9
20260507074528 71 206 0.0 2.0 0.00 0.00 0.00 72 1012.9
20260507073527 71 206 1.0 2.0 0.00 0.00 0.00 72 1012.5
20260507073027 72 206 0.0 1.0 0.00 0.00 0.00 71 1012.6
20260507072523 72 206 0.0 0.0 0.00 0.00 0.00 70 1012.7
20260507071518 73 206 0.0 0.0 0.00 0.00 0.00 68 1012.7
20260507071030 73 206 0.0 1.0 0.00 0.00 0.00 67 1012.8
20260507070515 74 206 0.0 1.0 0.00 0.00 0.00 66 1012.9
20260507070014 74 206 0.0 1.0 0.00 0.00 0.00 65 1013.1
20260507065513 74 206 0.0 1.0 0.00 0.00 0.00 65 1013.1
20260507065011 75 206 0.0 2.0 0.00 0.00 0.00 63 1013.1
20260507064510 75 206 0.0 2.0 0.00 0.00 0.00 62 1013.1
20260507064020 75 206 0.0 2.0 0.00 0.00 0.00 62 1013.1
20260507063509 75 206 1.0 4.0 0.00 0.00 0.00 62 1013.1
20260507063007 75 206 2.0 5.0 0.00 0.00 0.00 61 1013.1
20260507061950 76 187 3.0 7.0 0.00 0.00 0.00 61 1013.2
20260507060935 76 196 3.0 6.0 0.00 0.00 0.00 62 1013.4
20260507060435 76 218 3.0 6.0 0.00 0.00 0.00 62 1013.3
20260507055948 76 235 3.0 6.0 0.00 0.00 0.00 63 1013.4
20260507055434 76 201 3.0 5.0 0.00 0.00 0.00 64 1013.6
20260507054939 76 196 3.0 7.0 0.00 0.00 0.00 64 1013.6
20260507054443 76 214 3.0 7.0 0.00 0.00 0.00 64 1013.7
20260507053932 76 235 3.0 7.0 0.00 0.00 0.00 64 1013.8
20260507053434 76 245 3.0 7.0 0.00 0.00 0.00 64 1013.9
20260507052427 77 198 4.0 8.0 0.00 0.00 0.00 65 1013.8
20260507051924 77 193 4.0 9.0 0.00 0.00 0.00 66 1013.6
20260507051427 77 177 4.0 9.0 0.00 0.00 0.00 66 1013.7
20260507050936 77 235 5.0 9.0 0.00 0.00 0.00 67 1013.8
20260507050421 77 211 5.0 10.0 0.00 0.00 0.00 67 1013.8
20260507045931 77 207 5.0 12.0 0.00 0.00 0.00 67 1013.8
20260507045419 77 195 6.0 12.0 0.00 0.00 0.00 67 1013.8
20260507044918 77 194 6.0 12.0 0.00 0.00 0.00 67 1013.8
20260507044426 78 189 6.0 13.0 0.00 0.00 0.00 66 1014.0
20260507043930 78 198 6.0 13.0 0.00 0.00 0.00 66 1014.0
20260507043420 78 191 5.0 10.0 0.00 0.00 0.00 66 1014.0
20260507042920 78 225 5.0 11.0 0.00 0.00 0.00 65 1014.1
20260507042419 78 215 4.0 11.0 0.00 0.00 0.00 65 1014.2
20260507041415 78 188 5.0 10.0 0.00 0.00 0.00 65 1014.2
20260507040914 78 212 5.0 10.0 0.00 0.00 0.00 64 1014.5
20260507040416 78 237 5.0 11.0 0.00 0.00 0.00 64 1014.5
20260507035415 78 236 4.0 9.0 0.00 0.00 0.00 64 1014.5
20260507034915 79 225 5.0 9.0 0.00 0.00 0.00 64 1014.3
20260507034423 79 202 5.0 10.0 0.00 0.00 0.00 64 1014.1
20260507033918 79 233 5.0 10.0 0.00 0.00 0.00 64 1014.0
20260507033420 79 196 5.0 10.0 0.00 0.00 0.00 63 1014.1
20260507032915 79 230 4.0 10.0 0.00 0.00 0.00 63 1014.1
20260507032415 79 202 4.0 9.0 0.00 0.00 0.00 63 1014.1
20260507030908 79 203 5.0 9.0 0.00 0.00 0.00 63 1014.0
20260507025405 80 187 4.0 9.0 0.00 0.00 0.00 63 1014.2
20260507024905 80 197 5.0 9.0 0.00 0.00 0.00 63 1014.3
20260507024405 80 238 5.0 10.0 0.00 0.00 0.00 63 1014.4
20260507023906 80 181 4.0 10.0 0.00 0.00 0.00 63 1014.3
20260507022903 80 193 3.0 7.0 0.00 0.00 0.00 63 1014.1
20260507021906 80 193 2.0 6.0 0.00 0.00 0.00 62 1014.0
20260507021407 80 218 3.0 5.0 0.00 0.00 0.00 62 1013.9
20260507020907 80 232 2.0 5.0 0.00 0.00 0.00 61 1014.0
20260507020408 80 222 1.0 5.0 0.00 0.00 0.00 61 1013.7
20260507015902 80 179 2.0 4.0 0.00 0.00 0.00 61 1013.6
20260507015401 80 180 3.0 6.0 0.00 0.00 0.00 62 1013.7
20260507014901 80 176 2.0 6.0 0.00 0.00 0.00 62 1013.6
20260507013900 80 189 2.0 4.0 0.00 0.00 0.00 63 1013.8
20260507013415 80 196 1.0 4.0 0.00 0.00 0.00 61 1013.9
20260507012401 80 196 2.0 4.0 0.00 0.00 0.00 61 1013.8
20260507011902 80 197 2.0 4.0 0.00 0.00 0.00 61 1013.8
20260507011400 80 197 1.0 4.0 0.00 0.00 0.00 61 1013.9
20260507005906 81 198 0.0 1.0 0.00 0.00 0.00 61 1013.8
20260507005408 81 198 0.0 1.0 0.00 0.00 0.00 60 1013.9
20260507004910 82 198 0.0 1.0 0.00 0.00 0.00 59 1013.9
20260507004404 82 198 0.0 0.0 0.00 0.00 0.00 59 1014.1
20260507003905 82 198 0.0 0.0 0.00 0.00 0.00 59 1014.1
20260507003401 83 198 0.0 0.0 0.00 0.00 0.00 58 1014.0
20260507002901 83 198 0.0 2.0 0.00 0.00 0.00 56 1014.0
20260507002402 83 198 1.0 4.0 0.00 0.00 0.00 56 1013.9
20260507001901 83 198 1.0 4.0 0.00 0.00 0.00 56 1013.8
20260507001400 83 213 1.0 4.0 0.00 0.00 0.00 54 1013.9
20260507000900 84 225 1.0 4.0 0.00 0.00 0.00 54 1013.9
20260507000400 84 225 2.0 4.0 0.00 0.00 0.00 53 1013.8
20260506235855 84 225 2.0 4.0 0.00 0.00 0.00 53 1013.9
20260506235356 85 226 2.0 3.0 0.00 0.00 0.00 52 1014.0
20260506234852 85 226 2.0 3.0 0.00 0.00 0.00 52 1014.3
20260506234352 85 211 1.0 3.0 0.00 0.00 0.00 51 1014.1
20260506233852 85 211 2.0 4.0 0.00 0.00 0.00 52 1013.9
20260506233350 86 211 3.0 7.0 0.00 0.00 0.00 51 1013.8
20260506232851 86 218 3.0 7.0 0.00 0.00 0.00 50 1013.9
20260506232351 86 218 3.0 6.0 0.00 0.00 0.00 50 1014.0
20260506231408 87 218 3.0 9.0 0.00 0.00 0.00 49 1014.0
20260506230855 87 229 3.0 9.0 0.00 0.00 0.00 48 1014.1
20260506230352 87 242 4.0 9.0 0.00 0.00 0.00 48 1014.0
20260506225400 88 202 5.0 11.0 0.00 0.00 0.00 47 1013.8
20260506224855 88 198 5.0 11.0 0.00 0.00 0.00 47 1013.8
20260506223349 89 209 5.0 9.0 0.00 0.00 0.00 46 1013.9
20260506222352 89 212 4.0 9.0 0.00 0.00 0.00 47 1013.9
20260506221848 89 136 4.0 10.0 0.00 0.00 0.00 47 1014.0
20260506220849 89 245 5.0 14.0 0.00 0.00 0.00 48 1014.1
20260506220353 89 213 6.0 14.0 0.00 0.00 0.00 47 1014.1
20260506215848 89 215 6.0 11.0 0.00 0.00 0.00 48 1014.3
20260506214846 88 235 4.0 8.0 0.00 0.00 0.00 47 1014.6
20260506214347 88 258 5.0 10.0 0.00 0.00 0.00 47 1014.5
20260506213846 88 218 4.0 10.0 0.00 0.00 0.00 47 1014.5
20260506213354 88 252 4.0 9.0 0.00 0.00 0.00 48 1014.4
20260506212848 88 251 4.0 9.0 0.00 0.00 0.00 48 1014.3
20260506212347 88 263 4.0 9.0 0.00 0.00 0.00 47 1014.4
20260506211846 88 195 4.0 7.0 0.00 0.00 0.00 48 1014.3
20260506211344 88 203 5.0 8.0 0.00 0.00 0.00 48 1014.3
20260506210844 88 192 5.0 8.0 0.00 0.00 0.00 49 1014.3
20260506210343 87 192 5.0 10.0 0.00 0.00 0.00 49 1014.4
20260506205838 88 237 4.0 10.0 0.00 0.00 0.00 48 1014.4
20260506204332 89 240 5.0 8.0 0.00 0.00 0.00 46 1014.4
20260506203832 89 160 6.0 13.0 0.00 0.00 0.00 48 1014.5
20260506203331 89 200 5.0 13.0 0.00 0.00 0.00 47 1014.6
20260506202844 89 202 4.0 10.0 0.00 0.00 0.00 47 1014.5
20260506201842 90 272 5.0 11.0 0.00 0.00 0.00 46 1014.6
20260506201337 89 243 6.0 12.0 0.00 0.00 0.00 47 1014.6
20260506200333 89 191 7.0 15.0 0.00 0.00 0.00 46 1014.6
20260506195334 88 181 7.0 13.0 0.00 0.00 0.00 47 1014.7
20260506194831 88 208 6.0 13.0 0.00 0.00 0.00 47 1014.7
20260506194323 89 196 6.0 11.0 0.00 0.00 0.00 46 1014.8
20260506193319 89 188 7.0 15.0 0.00 0.00 0.00 46 1015.0
20260506192828 89 197 6.0 14.0 0.00 0.00 0.00 46 1015.1
20260506192316 88 199 5.0 16.0 0.00 0.00 0.00 47 1015.1
20260506191815 88 215 7.0 16.0 0.00 0.00 0.00 47 1015.1
20260506191310 87 190 9.0 18.0 0.00 0.00 0.00 49 1015.2
20260506190812 87 183 8.0 18.0 0.00 0.00 0.00 45 1015.3
20260506185811 88 266 6.0 14.0 0.00 0.00 0.00 46 1015.4
20260506185313 88 179 7.0 14.0 0.00 0.00 0.00 46 1015.5
20260506184807 88 196 6.0 12.0 0.00 0.00 0.00 47 1015.4
20260506184309 88 236 5.0 11.0 0.00 0.00 0.00 46 1015.6
20260506183806 88 231 5.0 13.0 0.00 0.00 0.00 46 1015.7
20260506183305 88 248 4.0 13.0 0.00 0.00 0.00 46 1015.7
20260506182804 88 204 5.0 13.0 0.00 0.00 0.00 46 1015.7
20260506182306 87 192 7.0 13.0 0.00 0.00 0.00 46 1015.8
20260506181757 87 194 5.0 13.0 0.00 0.00 0.00 46 1015.9
20260506180744 87 266 7.0 13.0 0.00 0.00 0.00 46 1016.0
20260506180242 87 172 7.0 13.0 0.00 0.00 0.00 47 1016.0
20260506175742 87 200 5.0 12.0 0.00 0.00 0.00 45 1016.1
20260506175241 87 248 6.0 14.0 0.00 0.00 0.00 47 1016.1
20260506174737 86 218 6.0 14.0 0.00 0.00 0.00 48 1016.1
20260506174241 86 216 5.0 9.0 0.00 0.00 0.00 44 1016.3
20260506173744 87 231 5.0 13.0 0.00 0.00 0.00 46 1016.4